Time,TemperatureF,DewpointF,PressureIn,WindDirection,WindDirectionDegrees,WindSpeedMPH,WindSpeedGustMPH,Humidity,HourlyPrecipIn,Conditions,Clouds,dailyrainin,SoftwareType,DateUTC
2013-06-01 00:01:00,69.1,60.5,30.12,SE,135,0.0,0.0,74,0.00,,CLR,0.00,VWS V12.08,2013-06-01 04:01:00,
2013-06-01 00:02:00,69.1,60.5,30.12,SE,135,0.0,0.0,74,0.00,,CLR,0.00,VWS V12.08,2013-06-01 04:02:00,
2013-06-01 00:04:00,69.1,60.5,30.12,SE,135,0.0,0.0,74,0.00,,CLR,0.00,VWS V12.08,2013-06-01 04:04:00,
2013-06-01 00:09:00,69.1,60.5,30.12,SE,135,0.0,0.0,74,0.00,,CLR,0.00,VWS V12.08,2013-06-01 04:09:00,
2013-06-01 00:14:00,68.9,60.7,30.12,SE,135,0.0,0.0,75,0.00,,CLR,0.00,VWS V12.08,2013-06-01 04:14:00,
2013-06-01 00:19:00,68.9,60.7,30.12,SE,135,0.0,0.0,75,0.00,,CLR,0.00,VWS V12.08,2013-06-01 04:19:00,
2013-06-01 00:24:00,68.9,60.7,30.12,SE,135,0.0,0.0,75,0.00,,CLR,0.00,VWS V12.08,2013-06-01 04:24:00,
2013-06-01 00:29:00,68.9,60.7,30.11,SE,135,0.0,0.0,75,0.00,,CLR,0.00,VWS V12.08,2013-06-01 04:29:00,
2013-06-01 00:34:00,68.9,61.0,30.11,ENE,68,0.0,0.0,76,0.00,,CLR,0.00,VWS V12.08,2013-06-01 04:34:00,
2013-06-01 00:39:00,68.9,61.0,30.12,ENE,68,0.0,0.0,76,0.00,,CLR,0.00,VWS V12.08,2013-06-01 04:39:00,
2013-06-01 00:44:00,68.9,61.0,30.11,ENE,68,0.0,0.0,76,0.00,,CLR,0.00,VWS V12.08,2013-06-01 04:44:00,
2013-06-01 00:49:00,68.9,61.0,30.11,ENE,68,0.0,0.0,76,0.00,,CLR,0.00,VWS V12.08,2013-06-01 04:49:00,
2013-06-01 00:54:00,68.7,60.9,30.11,East,90,0.0,0.0,76,0.00,,CLR,0.00,VWS V12.08,2013-06-01 04:54:00,
2013-06-01 00:59:00,68.7,60.9,30.11,East,90,0.0,0.0,76,0.00,,CLR,0.00,VWS V12.08,2013-06-01 04:59:00,
2013-06-01 01:04:00,68.7,60.9,30.11,East,90,0.0,0.0,76,0.00,,CLR,0.00,VWS V12.08,2013-06-01 05:04:00,
2013-06-01 01:09:00,68.5,60.7,30.11,East,90,0.0,0.0,76,0.00,,CLR,0.00,VWS V12.08,2013-06-01 05:09:00,
2013-06-01 01:14:00,68.5,61.0,30.12,East,90,0.0,0.0,77,0.00,,CLR,0.00,VWS V12.08,2013-06-01 05:14:00,
2013-06-01 01:19:00,68.5,61.0,30.11,East,90,0.0,0.0,77,0.00,,CLR,0.00,VWS V12.08,2013-06-01 05:19:00,
2013-06-01 01:24:00,68.5,61.0,30.11,East,90,0.0,0.0,77,0.00,,CLR,0.00,VWS V12.08,2013-06-01 05:24:00,
2013-06-01 01:29:00,68.4,60.9,30.11,East,90,0.0,0.0,77,0.00,,CLR,0.00,VWS V12.08,2013-06-01 05:29:00,
2013-06-01 01:34:00,68.4,60.9,30.11,East,90,0.0,0.0,77,0.00,,CLR,0.00,VWS V12.08,2013-06-01 05:34:00,
2013-06-01 01:39:00,68.4,60.9,30.11,East,90,0.0,0.0,77,0.00,,CLR,0.00,VWS V12.08,2013-06-01 05:39:00,
2013-06-01 01:44:00,68.2,61.1,30.11,East,90,0.0,0.0,78,0.00,,CLR,0.00,VWS V12.08,2013-06-01 05:44:00,
2013-06-01 01:49:00,68.2,61.1,30.11,East,90,0.0,0.0,78,0.00,,CLR,0.00,VWS V12.08,2013-06-01 05:49:00,
2013-06-01 01:54:00,68.4,61.2,30.11,East,90,0.0,0.0,78,0.00,,CLR,0.00,VWS V12.08,2013-06-01 05:54:00,
2013-06-01 01:59:00,68.4,61.2,30.11,ENE,68,0.0,0.0,78,0.00,,CLR,0.00,VWS V12.08,2013-06-01 05:59:00,
2013-06-01 02:04:00,68.4,61.2,30.11,ENE,68,0.0,0.0,78,0.00,,CLR,0.00,VWS V12.08,2013-06-01 06:04:00,
2013-06-01 02:09:00,68.7,62.0,30.11,ESE,112,0.0,0.0,79,0.00,,CLR,0.00,VWS V12.08,2013-06-01 06:09:00,
2013-06-01 02:14:00,68.9,62.1,30.12,SE,135,0.0,0.0,79,0.00,,CLR,0.00,VWS V12.08,2013-06-01 06:14:00,
2013-06-01 02:19:00,68.9,61.8,30.12,SE,135,0.0,0.0,78,0.00,,CLR,0.00,VWS V12.08,2013-06-01 06:19:00,
2013-06-01 02:24:00,68.9,62.1,30.11,NW,315,0.0,0.0,79,0.00,,CLR,0.00,VWS V12.08,2013-06-01 06:24:00,
2013-06-01 02:29:00,69.1,62.3,30.12,WNW,292,0.0,0.0,79,0.00,,CLR,0.00,VWS V12.08,2013-06-01 06:29:00,
2013-06-01 02:34:00,69.1,62.3,30.11,WNW,292,0.0,0.0,79,0.00,,CLR,0.00,VWS V12.08,2013-06-01 06:34:00,
2013-06-01 02:39:00,69.1,62.3,30.12,WNW,292,0.0,0.0,79,0.00,,CLR,0.00,VWS V12.08,2013-06-01 06:39:00,
2013-06-01 02:44:00,69.3,62.5,30.12,NE,45,0.0,0.0,79,0.00,,CLR,0.00,VWS V12.08,2013-06-01 06:44:00,
2013-06-01 02:49:00,69.1,62.3,30.12,ENE,68,0.0,0.0,79,0.00,,CLR,0.00,VWS V12.08,2013-06-01 06:49:00,
2013-06-01 02:54:00,69.1,62.3,30.12,ENE,68,0.0,0.0,79,0.00,,CLR,0.00,VWS V12.08,2013-06-01 06:54:00,
2013-06-01 02:59:00,69.1,62.3,30.12,ENE,68,0.0,0.0,79,0.00,,CLR,0.00,VWS V12.08,2013-06-01 06:59:00,
2013-06-01 03:04:00,69.1,62.3,30.12,ENE,68,0.0,0.0,79,0.00,,CLR,0.00,VWS V12.08,2013-06-01 07:04:00,
2013-06-01 03:09:00,69.1,62.7,30.12,NNE,22,0.0,0.0,80,0.00,,CLR,0.00,VWS V12.08,2013-06-01 07:09:00,
2013-06-01 03:14:00,69.1,62.7,30.12,NNE,22,0.0,0.0,80,0.00,,CLR,0.00,VWS V12.08,2013-06-01 07:14:00,
2013-06-01 03:19:00,69.1,62.7,30.12,NNE,22,0.0,0.0,80,0.00,,CLR,0.00,VWS V12.08,2013-06-01 07:19:00,
2013-06-01 03:24:00,69.6,62.8,30.12,ENE,68,0.0,0.0,79,0.00,,CLR,0.00,VWS V12.08,2013-06-01 07:24:00,
2013-06-01 03:29:00,69.6,62.8,30.12,ENE,68,0.0,0.0,79,0.00,,CLR,0.00,VWS V12.08,2013-06-01 07:29:00,
2013-06-01 03:34:00,69.8,63.0,30.11,SSW,202,0.0,0.0,79,0.00,,CLR,0.00,VWS V12.08,2013-06-01 07:34:00,
2013-06-01 03:39:00,70.0,62.8,30.11,ENE,68,0.0,0.0,78,0.00,,CLR,0.00,VWS V12.08,2013-06-01 07:39:00,
2013-06-01 03:44:00,70.2,63.0,30.11,NNW,338,0.0,0.0,78,0.00,,CLR,0.00,VWS V12.08,2013-06-01 07:44:00,
2013-06-01 03:49:00,70.2,63.0,30.12,SSW,202,0.0,0.0,78,0.00,,CLR,0.00,VWS V12.08,2013-06-01 07:49:00,
2013-06-01 03:54:00,70.2,63.0,30.12,NE,45,0.0,0.0,78,0.00,,CLR,0.00,VWS V12.08,2013-06-01 07:54:00,
2013-06-01 03:59:00,70.2,63.0,30.11,NE,45,0.0,0.0,78,0.00,,CLR,0.00,VWS V12.08,2013-06-01 07:59:00,
2013-06-01 04:04:00,70.2,63.0,30.12,SSE,158,0.0,0.0,78,0.00,,CLR,0.00,VWS V12.08,2013-06-01 08:04:00,
2013-06-01 04:09:00,70.2,63.0,30.11,SSE,158,0.0,0.0,78,0.00,,CLR,0.00,VWS V12.08,2013-06-01 08:09:00,
2013-06-01 04:14:00,69.8,62.6,30.11,NE,45,0.0,0.0,78,0.00,,CLR,0.00,VWS V12.08,2013-06-01 08:14:00,
2013-06-01 04:19:00,69.8,62.6,30.11,WSW,248,0.0,0.0,78,0.00,,CLR,0.00,VWS V12.08,2013-06-01 08:19:00,
2013-06-01 04:24:00,69.6,62.5,30.11,NE,45,0.0,0.0,78,0.00,,CLR,0.00,VWS V12.08,2013-06-01 08:24:00,
2013-06-01 04:29:00,69.6,62.5,30.11,ESE,112,0.0,0.0,78,0.00,,CLR,0.00,VWS V12.08,2013-06-01 08:29:00,
2013-06-01 04:34:00,69.6,62.5,30.11,ESE,112,0.0,0.0,78,0.00,,CLR,0.00,VWS V12.08,2013-06-01 08:34:00,
2013-06-01 04:39:00,69.3,62.5,30.11,East,90,0.0,0.0,79,0.00,,CLR,0.00,VWS V12.08,2013-06-01 08:39:00,
2013-06-01 04:44:00,69.1,62.3,30.11,East,90,0.0,0.0,79,0.00,,CLR,0.00,VWS V12.08,2013-06-01 08:44:00,
2013-06-01 04:49:00,69.1,62.3,30.11,NE,45,0.0,0.0,79,0.00,,CLR,0.00,VWS V12.08,2013-06-01 08:49:00,
2013-06-01 04:54:00,68.9,62.1,30.12,ESE,112,0.0,0.0,79,0.00,,CLR,0.00,VWS V12.08,2013-06-01 08:54:00,
2013-06-01 04:59:00,68.9,62.1,30.12,ESE,112,0.0,0.0,79,0.00,,CLR,0.00,VWS V12.08,2013-06-01 08:59:00,
2013-06-01 05:04:00,68.7,62.0,30.11,ESE,112,0.0,0.0,79,0.00,,CLR,0.00,VWS V12.08,2013-06-01 09:04:00,
2013-06-01 05:09:00,68.7,62.3,30.11,ESE,112,0.0,0.0,80,0.00,,CLR,0.00,VWS V12.08,2013-06-01 09:09:00,
2013-06-01 05:14:00,68.7,62.3,30.11,ESE,112,0.0,0.0,80,0.00,,CLR,0.00,VWS V12.08,2013-06-01 09:14:00,
2013-06-01 05:19:00,68.7,62.3,30.11,ESE,112,0.0,0.0,80,0.00,,CLR,0.00,VWS V12.08,2013-06-01 09:19:00,
2013-06-01 05:24:00,68.5,62.5,30.11,ESE,112,0.0,0.0,81,0.00,,CLR,0.00,VWS V12.08,2013-06-01 09:24:00,
2013-06-01 05:29:00,68.5,62.5,30.11,ESE,112,0.0,0.0,81,0.00,,CLR,0.00,VWS V12.08,2013-06-01 09:29:00,
2013-06-01 05:34:00,68.4,62.3,30.11,ESE,112,0.0,0.0,81,0.00,,CLR,0.00,VWS V12.08,2013-06-01 09:34:00,
2013-06-01 05:39:00,68.2,62.1,30.11,ESE,112,0.0,0.0,81,0.00,,CLR,0.00,VWS V12.08,2013-06-01 09:39:00,
2013-06-01 05:44:00,68.2,62.1,30.11,ESE,112,0.0,0.0,81,0.00,,CLR,0.00,VWS V12.08,2013-06-01 09:44:00,
2013-06-01 05:49:00,68.2,62.1,30.11,ESE,112,0.0,0.0,81,0.00,,CLR,0.00,VWS V12.08,2013-06-01 09:49:00,
2013-06-01 05:54:00,68.2,62.1,30.11,ESE,112,0.0,0.0,81,0.00,,CLR,0.00,VWS V12.08,2013-06-01 09:54:00,
2013-06-01 05:59:00,68.0,62.0,30.11,ESE,112,0.0,0.0,81,0.00,,CLR,0.00,VWS V12.08,2013-06-01 09:59:00,
2013-06-01 06:04:00,68.0,62.0,30.11,East,90,0.0,0.0,81,0.00,,CLR,0.00,VWS V12.08,2013-06-01 10:04:00,
2013-06-01 06:09:00,67.8,62.1,30.11,ENE,68,0.0,0.0,82,0.00,,CLR,0.00,VWS V12.08,2013-06-01 10:09:00,
2013-06-01 06:14:00,67.8,62.1,30.11,ENE,68,0.0,0.0,82,0.00,,CLR,0.00,VWS V12.08,2013-06-01 10:14:00,
2013-06-01 06:19:00,67.8,62.1,30.11,ENE,68,0.0,0.0,82,0.00,,CLR,0.00,VWS V12.08,2013-06-01 10:19:00,
2013-06-01 06:24:00,67.8,62.1,30.12,SW,225,0.0,0.0,82,0.00,,CLR,0.00,VWS V12.08,2013-06-01 10:24:00,
2013-06-01 06:29:00,67.8,62.1,30.12,SW,225,0.0,0.0,82,0.00,,CLR,0.00,VWS V12.08,2013-06-01 10:29:00,
2013-06-01 06:34:00,68.0,62.3,30.11,SSW,202,0.0,0.0,82,0.00,,CLR,0.00,VWS V12.08,2013-06-01 10:34:00,
2013-06-01 06:39:00,67.8,62.1,30.12,WSW,248,0.0,0.0,82,0.00,,CLR,0.00,VWS V12.08,2013-06-01 10:39:00,
2013-06-01 06:44:00,67.8,62.1,30.11,WSW,248,0.0,0.0,82,0.00,,CLR,0.00,VWS V12.08,2013-06-01 10:44:00,
2013-06-01 06:49:00,67.6,61.6,30.12,West,270,0.0,0.0,81,0.00,,CLR,0.00,VWS V12.08,2013-06-01 10:49:00,
2013-06-01 06:54:00,67.3,61.3,30.11,WNW,292,0.0,0.0,81,0.00,,CLR,0.00,VWS V12.08,2013-06-01 10:54:00,
2013-06-01 06:59:00,67.3,61.3,30.11,WNW,292,0.0,0.0,81,0.00,,CLR,0.00,VWS V12.08,2013-06-01 10:59:00,
2013-06-01 07:04:00,67.3,61.3,30.11,WNW,292,0.0,0.0,81,0.00,,CLR,0.00,VWS V12.08,2013-06-01 11:04:00,
2013-06-01 07:09:00,67.3,61.3,30.11,WNW,292,0.0,0.0,81,0.00,,CLR,0.00,VWS V12.08,2013-06-01 11:09:00,
2013-06-01 07:14:00,67.3,61.3,30.11,WNW,292,0.0,0.0,81,0.00,,CLR,0.00,VWS V12.08,2013-06-01 11:14:00,
2013-06-01 07:19:00,67.6,62.0,30.11,ESE,112,0.0,0.0,82,0.00,,CLR,0.00,VWS V12.08,2013-06-01 11:19:00,
2013-06-01 07:24:00,67.8,62.1,30.11,ENE,68,0.0,0.0,82,0.00,,CLR,0.00,VWS V12.08,2013-06-01 11:24:00,
2013-06-01 07:29:00,67.8,61.8,30.11,East,90,0.0,0.0,81,0.00,,CLR,0.00,VWS V12.08,2013-06-01 11:29:00,
2013-06-01 07:34:00,67.8,61.8,30.11,East,90,0.0,0.0,81,0.00,,CLR,0.00,VWS V12.08,2013-06-01 11:34:00,
2013-06-01 07:39:00,68.0,62.0,30.11,NNE,22,0.0,0.0,81,0.00,,CLR,0.00,VWS V12.08,2013-06-01 11:39:00,
2013-06-01 07:44:00,68.0,62.0,30.11,NNE,22,0.0,0.0,81,0.00,,CLR,0.00,VWS V12.08,2013-06-01 11:44:00,
2013-06-01 07:49:00,68.2,62.1,30.11,NE,45,0.0,0.0,81,0.00,,CLR,0.00,VWS V12.08,2013-06-01 11:49:00,
2013-06-01 07:54:00,68.4,62.3,30.11,NE,45,0.0,0.0,81,0.00,,CLR,0.00,VWS V12.08,2013-06-01 11:54:00,
2013-06-01 07:59:00,68.5,62.1,30.11,NE,45,0.0,0.0,80,0.00,,CLR,0.00,VWS V12.08,2013-06-01 11:59:00,
2013-06-01 08:04:00,68.5,61.8,30.12,NE,45,0.0,0.0,79,0.00,,CLR,0.00,VWS V12.08,2013-06-01 12:04:00,
2013-06-01 08:09:00,68.5,61.4,30.11,NE,45,0.0,0.0,78,0.00,,CLR,0.00,VWS V12.08,2013-06-01 12:09:00,
2013-06-01 08:14:00,69.8,62.6,30.11,NE,45,0.0,0.0,78,0.00,,CLR,0.00,VWS V12.08,2013-06-01 12:14:00,
2013-06-01 08:19:00,69.8,62.6,30.11,NE,45,0.0,0.0,78,0.00,,CLR,0.00,VWS V12.08,2013-06-01 12:19:00,
2013-06-01 08:24:00,70.7,62.4,30.11,NW,315,0.0,0.0,75,0.00,,CLR,0.00,VWS V12.08,2013-06-01 12:24:00,
2013-06-01 08:29:00,71.2,62.9,30.11,NNE,22,0.0,0.0,75,0.00,,CLR,0.00,VWS V12.08,2013-06-01 12:29:00,
2013-06-01 08:34:00,71.2,61.8,30.11,SSE,158,0.0,0.0,72,0.00,,CLR,0.00,VWS V12.08,2013-06-01 12:34:00,
2013-06-01 08:39:00,71.6,61.7,30.11,NW,315,0.7,0.7,71,0.00,,CLR,0.00,VWS V12.08,2013-06-01 12:39:00,
2013-06-01 08:44:00,71.6,61.7,30.11,NW,315,0.7,0.7,71,0.00,,CLR,0.00,VWS V12.08,2013-06-01 12:44:00,
2013-06-01 08:49:00,72.0,61.7,30.11,NNE,22,0.0,0.7,70,0.00,,CLR,0.00,VWS V12.08,2013-06-01 12:49:00,
2013-06-01 08:54:00,72.0,61.7,30.11,NNE,22,0.0,0.7,70,0.00,,CLR,0.00,VWS V12.08,2013-06-01 12:54:00,
2013-06-01 08:59:00,72.3,61.6,30.11,NNE,22,1.8,1.8,69,0.00,,CLR,0.00,VWS V12.08,2013-06-01 12:59:00,
2013-06-01 09:04:00,72.5,61.3,30.11,NE,45,0.0,1.8,68,0.00,,CLR,0.00,VWS V12.08,2013-06-01 13:04:00,
2013-06-01 09:09:00,72.5,61.3,30.11,NE,45,0.0,1.8,68,0.00,,CLR,0.00,VWS V12.08,2013-06-01 13:09:00,
2013-06-01 09:14:00,73.4,61.4,30.11,WNW,292,0.0,1.8,66,0.00,,CLR,0.00,VWS V12.08,2013-06-01 13:14:00,
2013-06-01 09:19:00,73.9,62.3,30.11,East,90,0.0,1.8,67,0.00,,CLR,0.00,VWS V12.08,2013-06-01 13:19:00,
2013-06-01 09:24:00,73.9,62.7,30.11,East,90,0.0,0.0,68,0.00,,CLR,0.00,VWS V12.08,2013-06-01 13:24:00,
2013-06-01 09:29:00,73.8,61.7,30.11,East,90,0.0,0.0,66,0.00,,CLR,0.00,VWS V12.08,2013-06-01 13:29:00,
2013-06-01 09:34:00,73.9,62.3,30.11,NNE,22,0.4,0.4,67,0.00,,CLR,0.00,VWS V12.08,2013-06-01 13:34:00,
2013-06-01 09:39:00,73.9,62.3,30.11,West,270,0.0,0.4,67,0.00,,CLR,0.00,VWS V12.08,2013-06-01 13:39:00,
2013-06-01 09:44:00,73.9,62.3,30.11,NW,315,0.0,0.0,67,0.00,,CLR,0.00,VWS V12.08,2013-06-01 13:44:00,
2013-06-01 09:49:00,73.9,61.9,30.11,SW,225,0.0,0.0,66,0.00,,CLR,0.00,VWS V12.08,2013-06-01 13:49:00,
2013-06-01 09:54:00,73.8,62.1,30.11,ENE,68,0.0,0.0,67,0.00,,CLR,0.00,VWS V12.08,2013-06-01 13:54:00,
2013-06-01 09:59:00,73.8,62.1,30.11,NNE,22,0.0,0.0,67,0.00,,CLR,0.00,VWS V12.08,2013-06-01 13:59:00,
2013-06-01 10:04:00,74.1,62.5,30.11,NNW,338,0.0,0.0,67,0.00,,CLR,0.00,VWS V12.08,2013-06-01 14:04:00,
2013-06-01 10:09:00,74.1,62.5,30.11,North,0,0.0,0.0,67,0.00,,CLR,0.00,VWS V12.08,2013-06-01 14:09:00,
2013-06-01 10:14:00,74.5,62.4,30.11,NNW,338,0.0,0.0,66,0.00,,CLR,0.00,VWS V12.08,2013-06-01 14:14:00,
2013-06-01 10:19:00,74.5,62.8,30.11,NW,315,0.0,0.0,67,0.00,,CLR,0.00,VWS V12.08,2013-06-01 14:19:00,
2013-06-01 10:24:00,74.5,62.8,30.11,NE,45,0.0,0.0,67,0.00,,CLR,0.00,VWS V12.08,2013-06-01 14:24:00,
2013-06-01 10:29:00,74.8,62.7,30.11,NE,45,0.0,0.0,66,0.00,,CLR,0.00,VWS V12.08,2013-06-01 14:29:00,
2013-06-01 10:34:00,75.4,63.2,30.11,NNW,338,0.0,7.2,66,0.00,,CLR,0.00,VWS V12.08,2013-06-01 14:34:00,
2013-06-01 10:39:00,75.7,63.6,30.11,West,270,0.0,7.2,66,0.00,,CLR,0.00,VWS V12.08,2013-06-01 14:39:00,
2013-06-01 10:44:00,75.7,63.6,30.11,West,270,0.0,0.0,66,0.00,,CLR,0.00,VWS V12.08,2013-06-01 14:44:00,
2013-06-01 10:49:00,76.8,62.4,30.11,NNW,338,0.0,1.8,61,0.00,,CLR,0.00,VWS V12.08,2013-06-01 14:49:00,
2013-06-01 10:54:00,77.2,64.1,30.11,East,90,0.0,1.8,64,0.00,,CLR,0.00,VWS V12.08,2013-06-01 14:54:00,
2013-06-01 10:59:00,77.5,64.9,30.11,East,90,0.0,1.8,65,0.00,,CLR,0.00,VWS V12.08,2013-06-01 14:59:00,
2013-06-01 11:04:00,77.7,63.2,30.11,NNE,22,0.0,0.0,61,0.00,,CLR,0.00,VWS V12.08,2013-06-01 15:04:00,
2013-06-01 11:09:00,77.5,63.5,30.11,WSW,248,0.0,0.0,62,0.00,,CLR,0.00,VWS V12.08,2013-06-01 15:09:00,
2013-06-01 11:14:00,77.5,63.5,30.11,East,90,0.0,0.0,62,0.00,,CLR,0.00,VWS V12.08,2013-06-01 15:14:00,
2013-06-01 11:19:00,77.2,64.5,30.11,ENE,68,0.0,0.0,65,0.00,,CLR,0.00,VWS V12.08,2013-06-01 15:19:00,
2013-06-01 11:24:00,76.8,63.7,30.11,ENE,68,0.0,0.0,64,0.00,,CLR,0.00,VWS V12.08,2013-06-01 15:24:00,
2013-06-01 11:29:00,77.2,64.9,30.11,NE,45,0.0,2.5,66,0.00,,CLR,0.00,VWS V12.08,2013-06-01 15:29:00,
2013-06-01 11:34:00,77.4,64.7,30.11,East,90,0.0,2.5,65,0.00,,CLR,0.00,VWS V12.08,2013-06-01 15:34:00,
2013-06-01 11:39:00,77.7,64.6,30.11,NE,45,0.0,4.5,64,0.00,,CLR,0.00,VWS V12.08,2013-06-01 15:39:00,
2013-06-01 11:44:00,78.1,64.5,30.11,ESE,112,0.0,0.0,63,0.00,,CLR,0.00,VWS V12.08,2013-06-01 15:44:00,
2013-06-01 11:49:00,78.6,65.4,30.11,East,90,0.0,0.0,64,0.00,,CLR,0.00,VWS V12.08,2013-06-01 15:49:00,
2013-06-01 11:54:00,79.0,64.4,30.11,NW,315,0.0,4.0,61,0.00,,CLR,0.00,VWS V12.08,2013-06-01 15:54:00,
2013-06-01 11:59:00,79.5,64.0,30.11,West,270,0.0,4.0,59,0.00,,CLR,0.00,VWS V12.08,2013-06-01 15:59:00,
2013-06-01 12:04:00,80.2,65.1,30.11,SW,225,0.0,0.0,60,0.00,,CLR,0.00,VWS V12.08,2013-06-01 16:04:00,
2013-06-01 12:09:00,80.8,67.0,30.11,East,90,0.0,0.0,63,0.00,,CLR,0.00,VWS V12.08,2013-06-01 16:09:00,
2013-06-01 12:14:00,81.3,65.6,30.10,NNW,338,0.0,0.7,59,0.00,,CLR,0.00,VWS V12.08,2013-06-01 16:14:00,
2013-06-01 12:19:00,81.3,65.6,30.11,ENE,68,0.0,1.3,59,0.00,,CLR,0.00,VWS V12.08,2013-06-01 16:19:00,
2013-06-01 12:24:00,81.1,65.9,30.11,ENE,68,0.7,1.1,60,0.00,,CLR,0.00,VWS V12.08,2013-06-01 16:24:00,
2013-06-01 12:29:00,81.5,66.8,30.10,ESE,112,2.9,3.1,61,0.00,,CLR,0.00,VWS V12.08,2013-06-01 16:29:00,
2013-06-01 12:34:00,81.7,65.5,30.10,NE,45,0.0,3.1,58,0.00,,CLR,0.00,VWS V12.08,2013-06-01 16:34:00,
2013-06-01 12:39:00,81.5,66.3,30.10,NE,45,0.0,3.1,60,0.00,,CLR,0.00,VWS V12.08,2013-06-01 16:39:00,
2013-06-01 12:44:00,82.0,67.3,30.10,SW,225,0.0,0.0,61,0.00,,CLR,0.00,VWS V12.08,2013-06-01 16:44:00,
2013-06-01 12:49:00,82.4,68.1,30.10,East,90,0.0,2.5,62,0.00,,CLR,0.00,VWS V12.08,2013-06-01 16:49:00,
2013-06-01 12:54:00,82.8,66.0,30.10,ENE,68,0.0,3.6,57,0.00,,CLR,0.00,VWS V12.08,2013-06-01 16:54:00,
2013-06-01 12:59:00,82.9,66.2,30.09,SSW,202,0.0,3.6,57,0.00,,CLR,0.00,VWS V12.08,2013-06-01 16:59:00,
2013-06-01 13:04:00,82.9,66.2,30.09,SSE,158,0.0,0.0,57,0.00,,CLR,0.00,VWS V12.08,2013-06-01 17:04:00,
2013-06-01 13:09:00,83.5,67.7,30.09,ESE,112,0.0,2.9,59,0.00,,CLR,0.00,VWS V12.08,2013-06-01 17:09:00,
2013-06-01 13:14:00,84.0,67.7,30.10,ENE,68,2.9,4.0,58,0.00,,CLR,0.00,VWS V12.08,2013-06-01 17:14:00,
2013-06-01 13:19:00,84.2,67.3,30.09,West,270,0.0,4.0,57,0.00,,CLR,0.00,VWS V12.08,2013-06-01 17:19:00,
2013-06-01 13:24:00,84.4,67.5,30.09,NE,45,0.0,2.9,57,0.00,,CLR,0.00,VWS V12.08,2013-06-01 17:24:00,
2013-06-01 13:29:00,84.6,67.7,30.09,SSW,202,0.0,2.9,57,0.00,,CLR,0.00,VWS V12.08,2013-06-01 17:29:00,
2013-06-01 13:34:00,84.6,66.6,30.09,NW,315,0.0,2.9,55,0.00,,CLR,0.00,VWS V12.08,2013-06-01 17:34:00,
2013-06-01 13:39:00,84.4,67.5,30.10,East,90,0.0,2.9,57,0.00,,CLR,0.00,VWS V12.08,2013-06-01 17:39:00,
2013-06-01 13:44:00,84.4,68.5,30.09,East,90,0.0,0.0,59,0.00,,CLR,0.00,VWS V12.08,2013-06-01 17:44:00,
2013-06-01 13:49:00,84.4,67.5,30.09,NE,45,0.0,1.1,57,0.00,,CLR,0.00,VWS V12.08,2013-06-01 17:49:00,
2013-06-01 13:54:00,84.2,66.8,30.09,ESE,112,1.6,2.0,56,0.00,,CLR,0.00,VWS V12.08,2013-06-01 17:54:00,
2013-06-01 13:59:00,84.2,67.3,30.09,ESE,112,0.2,2.2,57,0.00,,CLR,0.00,VWS V12.08,2013-06-01 17:59:00,
2013-06-01 14:04:00,84.4,67.0,30.08,NNE,22,0.0,1.6,56,0.00,,CLR,0.00,VWS V12.08,2013-06-01 18:04:00,
2013-06-01 14:09:00,84.6,66.6,30.08,NE,45,0.0,1.6,55,0.00,,CLR,0.00,VWS V12.08,2013-06-01 18:09:00,
2013-06-01 14:14:00,84.6,67.7,30.08,NE,45,0.0,6.5,57,0.00,,CLR,0.00,VWS V12.08,2013-06-01 18:14:00,
2013-06-01 14:19:00,84.6,66.6,30.08,NW,315,0.0,6.5,55,0.00,,CLR,0.00,VWS V12.08,2013-06-01 18:19:00,
2013-06-01 14:24:00,84.4,67.0,30.07,East,90,0.7,3.8,56,0.00,,CLR,0.00,VWS V12.08,2013-06-01 18:24:00,
2013-06-01 14:29:00,84.0,66.7,30.07,NNE,22,0.0,3.8,56,0.00,,CLR,0.00,VWS V12.08,2013-06-01 18:29:00,
2013-06-01 14:34:00,84.2,67.3,30.07,ESE,112,0.0,3.8,57,0.00,,CLR,0.00,VWS V12.08,2013-06-01 18:34:00,
2013-06-01 14:39:00,84.7,67.8,30.07,East,90,0.0,3.8,57,0.00,,CLR,0.00,VWS V12.08,2013-06-01 18:39:00,
2013-06-01 14:44:00,84.9,68.0,30.07,South,180,0.0,4.9,57,0.00,,CLR,0.00,VWS V12.08,2013-06-01 18:44:00,
2013-06-01 14:49:00,84.9,67.0,30.06,ESE,112,0.0,4.9,55,0.00,,CLR,0.00,VWS V12.08,2013-06-01 18:49:00,
2013-06-01 14:54:00,85.1,67.1,30.07,SE,135,0.0,4.9,55,0.00,,CLR,0.00,VWS V12.08,2013-06-01 18:54:00,
2013-06-01 14:59:00,85.6,68.7,30.07,ESE,112,0.0,4.9,57,0.00,,CLR,0.00,VWS V12.08,2013-06-01 18:59:00,
2013-06-01 15:04:00,85.6,66.6,30.07,WSW,248,0.0,3.1,53,0.00,,CLR,0.00,VWS V12.08,2013-06-01 19:04:00,
2013-06-01 15:09:00,85.6,67.1,30.07,East,90,0.0,3.1,54,0.00,,CLR,0.00,VWS V12.08,2013-06-01 19:09:00,
2013-06-01 15:14:00,85.8,67.8,30.07,SE,135,0.0,3.8,55,0.00,,CLR,0.00,VWS V12.08,2013-06-01 19:14:00,
2013-06-01 15:19:00,85.8,66.7,30.07,East,90,0.0,3.8,53,0.00,,CLR,0.00,VWS V12.08,2013-06-01 19:19:00,
2013-06-01 15:24:00,85.6,66.6,30.07,SE,135,3.4,5.8,53,0.00,,CLR,0.00,VWS V12.08,2013-06-01 19:24:00,
2013-06-01 15:29:00,85.1,66.6,30.06,ESE,112,0.0,5.8,54,0.00,,CLR,0.00,VWS V12.08,2013-06-01 19:29:00,
2013-06-01 15:34:00,84.4,65.9,30.06,East,90,0.0,5.8,54,0.00,,CLR,0.00,VWS V12.08,2013-06-01 19:34:00,
2013-06-01 15:39:00,84.2,65.2,30.06,ENE,68,0.9,5.8,53,0.00,,CLR,0.00,VWS V12.08,2013-06-01 19:39:00,
2013-06-01 15:44:00,83.8,65.4,30.07,ESE,112,0.0,0.4,54,0.00,,CLR,0.00,VWS V12.08,2013-06-01 19:44:00,
2013-06-01 15:49:00,83.5,65.6,30.07,SE,135,0.0,0.4,55,0.00,,CLR,0.00,VWS V12.08,2013-06-01 19:49:00,
2013-06-01 15:54:00,83.1,65.8,30.07,ESE,112,1.1,4.0,56,0.00,,CLR,0.00,VWS V12.08,2013-06-01 19:54:00,
2013-06-01 15:59:00,83.1,65.8,30.06,ESE,112,0.0,4.3,56,0.00,,CLR,0.00,VWS V12.08,2013-06-01 19:59:00,
2013-06-01 16:04:00,83.3,65.5,30.07,East,90,0.0,6.9,55,0.00,,CLR,0.00,VWS V12.08,2013-06-01 20:04:00,
2013-06-01 16:09:00,83.5,65.6,30.06,ESE,112,0.0,6.9,55,0.00,,CLR,0.00,VWS V12.08,2013-06-01 20:09:00,
2013-06-01 16:14:00,83.3,64.9,30.06,East,90,0.0,6.9,54,0.00,,CLR,0.00,VWS V12.08,2013-06-01 20:14:00,
2013-06-01 16:19:00,83.3,64.9,30.06,NNE,22,1.1,6.9,54,0.00,,CLR,0.00,VWS V12.08,2013-06-01 20:19:00,
2013-06-01 16:24:00,83.8,66.5,30.06,SE,135,0.0,0.9,56,0.00,,CLR,0.00,VWS V12.08,2013-06-01 20:24:00,
2013-06-01 16:29:00,84.4,64.3,30.06,ESE,112,0.0,6.0,51,0.00,,CLR,0.00,VWS V12.08,2013-06-01 20:29:00,
2013-06-01 16:34:00,84.4,65.4,30.06,ENE,68,0.9,6.0,53,0.00,,CLR,0.00,VWS V12.08,2013-06-01 20:34:00,
2013-06-01 16:39:00,84.6,66.6,30.06,SSW,202,0.0,6.0,55,0.00,,CLR,0.00,VWS V12.08,2013-06-01 20:39:00,
2013-06-01 16:44:00,84.9,67.0,30.06,ENE,68,2.5,3.8,55,0.00,,CLR,0.00,VWS V12.08,2013-06-01 20:44:00,
2013-06-01 16:49:00,84.9,67.0,30.05,NE,45,0.0,3.8,55,0.00,,CLR,0.00,VWS V12.08,2013-06-01 20:49:00,
2013-06-01 16:54:00,84.7,66.8,30.06,WNW,292,0.0,3.8,55,0.00,,CLR,0.00,VWS V12.08,2013-06-01 20:54:00,
2013-06-01 16:59:00,84.0,65.1,30.06,NNW,338,0.0,3.8,53,0.00,,CLR,0.00,VWS V12.08,2013-06-01 20:59:00,
2013-06-01 17:04:00,83.1,63.7,30.05,NNE,22,0.0,2.0,52,0.00,,CLR,0.00,VWS V12.08,2013-06-01 21:04:00,
2013-06-01 17:09:00,82.9,65.1,30.06,ENE,68,0.0,2.7,55,0.00,,CLR,0.00,VWS V12.08,2013-06-01 21:09:00,
2013-06-01 17:14:00,82.9,64.6,30.05,WNW,292,0.0,2.7,54,0.00,,CLR,0.00,VWS V12.08,2013-06-01 21:14:00,
2013-06-01 17:19:00,83.1,64.8,30.05,ESE,112,0.0,7.8,54,0.00,,CLR,0.00,VWS V12.08,2013-06-01 21:19:00,
2013-06-01 17:24:00,83.5,65.6,30.06,East,90,0.0,6.0,55,0.00,,CLR,0.00,VWS V12.08,2013-06-01 21:24:00,
2013-06-01 17:29:00,83.8,65.4,30.06,ENE,68,0.0,6.0,54,0.00,,CLR,0.00,VWS V12.08,2013-06-01 21:29:00,
2013-06-01 17:34:00,83.8,64.3,30.05,SSE,158,0.0,6.0,52,0.00,,CLR,0.00,VWS V12.08,2013-06-01 21:34:00,
2013-06-01 17:39:00,83.5,64.6,30.05,East,90,0.0,6.0,53,0.00,,CLR,0.00,VWS V12.08,2013-06-01 21:39:00,
2013-06-01 17:44:00,83.1,64.2,30.05,North,0,0.0,2.9,53,0.00,,CLR,0.00,VWS V12.08,2013-06-01 21:44:00,
2013-06-01 17:49:00,82.2,62.9,30.05,North,0,0.0,6.0,52,0.00,,CLR,0.00,VWS V12.08,2013-06-01 21:49:00,
2013-06-01 17:54:00,82.0,64.3,30.05,ESE,112,0.0,6.0,55,0.00,,CLR,0.00,VWS V12.08,2013-06-01 21:54:00,
2013-06-01 17:59:00,82.2,64.5,30.05,NNE,22,0.0,6.0,55,0.00,,CLR,0.00,VWS V12.08,2013-06-01 21:59:00,
2013-06-01 18:04:00,82.2,64.5,30.05,ENE,68,0.0,0.0,55,0.00,,CLR,0.00,VWS V12.08,2013-06-01 22:04:00,
2013-06-01 18:09:00,82.2,65.0,30.05,ENE,68,0.0,0.0,56,0.00,,CLR,0.00,VWS V12.08,2013-06-01 22:09:00,
2013-06-01 18:14:00,82.0,63.8,30.05,SE,135,0.0,2.9,54,0.00,,CLR,0.00,VWS V12.08,2013-06-01 22:14:00,
2013-06-01 18:19:00,82.0,64.8,30.04,ENE,68,0.0,2.9,56,0.00,,CLR,0.00,VWS V12.08,2013-06-01 22:19:00,
2013-06-01 18:24:00,82.0,64.8,30.04,East,90,0.0,2.2,56,0.00,,CLR,0.00,VWS V12.08,2013-06-01 22:24:00,
2013-06-01 18:29:00,81.7,65.0,30.04,ENE,68,0.0,2.2,57,0.00,,CLR,0.00,VWS V12.08,2013-06-01 22:29:00,
2013-06-01 18:34:00,81.3,64.7,30.04,ENE,68,0.0,2.2,57,0.00,,CLR,0.00,VWS V12.08,2013-06-01 22:34:00,
2013-06-01 18:39:00,81.5,64.8,30.04,East,90,0.0,2.9,57,0.00,,CLR,0.00,VWS V12.08,2013-06-01 22:39:00,
2013-06-01 18:44:00,81.3,64.1,30.04,WNW,292,0.0,1.1,56,0.00,,CLR,0.00,VWS V12.08,2013-06-01 22:44:00,
2013-06-01 18:49:00,81.3,64.1,30.04,ENE,68,0.0,1.3,56,0.00,,CLR,0.00,VWS V12.08,2013-06-01 22:49:00,
2013-06-01 18:54:00,81.1,62.9,30.04,ENE,68,0.0,4.9,54,0.00,,CLR,0.00,VWS V12.08,2013-06-01 22:54:00,
2013-06-01 18:59:00,81.3,64.1,30.03,ESE,112,0.0,4.9,56,0.00,,CLR,0.00,VWS V12.08,2013-06-01 22:59:00,
2013-06-01 19:04:00,82.8,65.0,30.03,ENE,68,1.3,1.3,55,0.00,,CLR,0.00,VWS V12.08,2013-06-01 23:04:00,
2013-06-01 19:09:00,84.4,65.9,30.03,East,90,0.0,1.3,54,0.00,,CLR,0.00,VWS V12.08,2013-06-01 23:09:00,
2013-06-01 19:14:00,84.4,65.4,30.03,ENE,68,0.0,1.3,53,0.00,,CLR,0.00,VWS V12.08,2013-06-01 23:14:00,
2013-06-01 19:19:00,85.8,66.2,30.03,ENE,68,0.0,1.3,52,0.00,,CLR,0.00,VWS V12.08,2013-06-01 23:19:00,
2013-06-01 19:24:00,86.9,66.0,30.03,East,90,0.0,3.1,50,0.00,,CLR,0.00,VWS V12.08,2013-06-01 23:24:00,
2013-06-01 19:29:00,87.1,65.6,30.03,ENE,68,0.0,3.1,49,0.00,,CLR,0.00,VWS V12.08,2013-06-01 23:29:00,
2013-06-01 19:34:00,85.1,65.0,30.02,ENE,68,0.0,3.1,51,0.00,,CLR,0.00,VWS V12.08,2013-06-01 23:34:00,
2013-06-01 19:39:00,82.8,63.9,30.02,ENE,68,0.0,3.1,53,0.00,,CLR,0.00,VWS V12.08,2013-06-01 23:39:00,
2013-06-01 19:44:00,81.3,63.6,30.02,ENE,68,0.0,0.0,55,0.00,,CLR,0.00,VWS V12.08,2013-06-01 23:44:00,
2013-06-01 19:49:00,80.2,63.1,30.02,ENE,68,0.0,0.0,56,0.00,,CLR,0.00,VWS V12.08,2013-06-01 23:49:00,
2013-06-01 19:54:00,79.3,62.8,30.02,East,90,0.0,0.0,57,0.00,,CLR,0.00,VWS V12.08,2013-06-01 23:54:00,
2013-06-01 19:59:00,78.6,62.6,30.03,ENE,68,0.0,0.0,58,0.00,,CLR,0.00,VWS V12.08,2013-06-01 23:59:00,
2013-06-01 20:04:00,78.4,62.9,30.03,ENE,68,0.0,0.0,59,0.00,,CLR,0.00,VWS V12.08,2013-06-02 00:04:00,
2013-06-01 20:09:00,77.7,62.7,30.02,ENE,68,0.0,0.0,60,0.00,,CLR,0.00,VWS V12.08,2013-06-02 00:09:00,
2013-06-01 20:14:00,77.4,62.9,30.03,SE,135,0.0,0.0,61,0.00,,CLR,0.00,VWS V12.08,2013-06-02 00:14:00,
2013-06-01 20:19:00,76.8,62.4,30.03,ESE,112,0.0,0.0,61,0.00,,CLR,0.00,VWS V12.08,2013-06-02 00:19:00,
2013-06-01 20:24:00,76.5,62.5,30.03,NNE,22,0.0,1.8,62,0.00,,CLR,0.00,VWS V12.08,2013-06-02 00:24:00,
2013-06-01 20:29:00,75.9,62.0,30.02,NNE,22,0.0,1.8,62,0.00,,CLR,0.00,VWS V12.08,2013-06-02 00:29:00,
2013-06-01 20:34:00,75.7,62.3,30.02,ENE,68,0.0,1.8,63,0.00,,CLR,0.00,VWS V12.08,2013-06-02 00:34:00,
2013-06-01 20:39:00,75.4,61.9,30.02,ENE,68,0.0,1.8,63,0.00,,CLR,0.00,VWS V12.08,2013-06-02 00:39:00,
2013-06-01 20:44:00,75.0,62.0,30.02,ENE,68,0.0,0.0,64,0.00,,CLR,0.00,VWS V12.08,2013-06-02 00:44:00,
2013-06-01 20:49:00,74.8,61.9,30.02,ENE,68,0.0,0.0,64,0.00,,CLR,0.00,VWS V12.08,2013-06-02 00:49:00,
2013-06-01 20:54:00,74.5,62.0,30.03,ENE,68,0.0,0.0,65,0.00,,CLR,0.00,VWS V12.08,2013-06-02 00:54:00,
2013-06-01 20:59:00,74.1,61.6,30.02,ENE,68,0.0,0.0,65,0.00,,CLR,0.00,VWS V12.08,2013-06-02 00:59:00,
2013-06-01 21:04:00,73.8,61.7,30.03,ENE,68,0.0,0.0,66,0.00,,CLR,0.00,VWS V12.08,2013-06-02 01:04:00,
2013-06-01 21:09:00,73.6,61.5,30.04,ENE,68,0.0,0.0,66,0.00,,CLR,0.00,VWS V12.08,2013-06-02 01:09:00,
2013-06-01 21:14:00,73.2,61.6,30.04,East,90,0.0,0.0,67,0.00,,CLR,0.00,VWS V12.08,2013-06-02 01:14:00,
2013-06-01 21:19:00,73.0,61.5,30.04,East,90,0.0,0.0,67,0.00,,CLR,0.00,VWS V12.08,2013-06-02 01:19:00,
2013-06-01 21:24:00,72.7,61.5,30.04,ESE,112,0.0,0.7,68,0.00,,CLR,0.00,VWS V12.08,2013-06-02 01:24:00,
2013-06-01 21:29:00,72.3,61.2,30.03,ESE,112,0.0,0.7,68,0.00,,CLR,0.00,VWS V12.08,2013-06-02 01:29:00,
2013-06-01 21:34:00,72.3,61.6,30.04,ESE,112,0.0,0.7,69,0.00,,CLR,0.00,VWS V12.08,2013-06-02 01:34:00,
2013-06-01 21:39:00,72.1,61.4,30.04,ESE,112,0.0,0.7,69,0.00,,CLR,0.00,VWS V12.08,2013-06-02 01:39:00,
2013-06-01 21:44:00,72.0,61.2,30.04,ESE,112,0.0,0.0,69,0.00,,CLR,0.00,VWS V12.08,2013-06-02 01:44:00,
2013-06-01 21:49:00,71.8,61.1,30.04,ESE,112,0.0,0.0,69,0.00,,CLR,0.00,VWS V12.08,2013-06-02 01:49:00,
2013-06-01 21:54:00,71.4,61.1,30.04,NE,45,0.0,0.0,70,0.00,,CLR,0.00,VWS V12.08,2013-06-02 01:54:00,
2013-06-01 21:59:00,71.4,61.1,30.04,ESE,112,0.0,0.0,70,0.00,,CLR,0.00,VWS V12.08,2013-06-02 01:59:00,
2013-06-01 22:04:00,71.2,61.0,30.04,ESE,112,0.0,0.0,70,0.00,,CLR,0.00,VWS V12.08,2013-06-02 02:04:00,
2013-06-01 22:09:00,71.2,61.0,30.05,ESE,112,0.0,1.1,70,0.00,,CLR,0.00,VWS V12.08,2013-06-02 02:09:00,
2013-06-01 22:14:00,70.9,61.0,30.05,ESE,112,0.0,1.1,71,0.00,,CLR,0.00,VWS V12.08,2013-06-02 02:14:00,
2013-06-01 22:19:00,70.9,61.0,30.05,NNE,22,2.9,2.9,71,0.00,,CLR,0.00,VWS V12.08,2013-06-02 02:19:00,
2013-06-01 22:24:00,70.9,61.0,30.05,ESE,112,0.0,2.9,71,0.00,,CLR,0.00,VWS V12.08,2013-06-02 02:24:00,
2013-06-01 22:29:00,70.9,61.0,30.06,ESE,112,0.0,2.9,71,0.00,,CLR,0.00,VWS V12.08,2013-06-02 02:29:00,
2013-06-01 22:34:00,70.5,60.7,30.06,ESE,112,0.0,2.9,71,0.00,,CLR,0.00,VWS V12.08,2013-06-02 02:34:00,
2013-06-01 22:39:00,70.5,60.7,30.05,ESE,112,0.0,2.9,71,0.00,,CLR,0.00,VWS V12.08,2013-06-02 02:39:00,
2013-06-01 22:44:00,70.5,60.7,30.05,ESE,112,0.0,0.0,71,0.00,,CLR,0.00,VWS V12.08,2013-06-02 02:44:00,
2013-06-01 22:49:00,70.5,60.7,30.05,ESE,112,0.0,0.0,71,0.00,,CLR,0.00,VWS V12.08,2013-06-02 02:49:00,
2013-06-01 22:54:00,70.5,60.7,30.05,ESE,112,0.0,0.0,71,0.00,,CLR,0.00,VWS V12.08,2013-06-02 02:54:00,
2013-06-01 22:59:00,70.3,60.9,30.05,ESE,112,0.0,0.0,72,0.00,,CLR,0.00,VWS V12.08,2013-06-02 02:59:00,
2013-06-01 23:04:00,70.2,60.7,30.05,ESE,112,0.0,0.0,72,0.00,,CLR,0.00,VWS V12.08,2013-06-02 03:04:00,
2013-06-01 23:09:00,70.2,61.1,30.04,ESE,112,0.0,0.0,73,0.00,,CLR,0.00,VWS V12.08,2013-06-02 03:09:00,
2013-06-01 23:14:00,70.2,61.1,30.04,ESE,112,0.0,0.0,73,0.00,,CLR,0.00,VWS V12.08,2013-06-02 03:14:00,
2013-06-01 23:19:00,70.2,61.1,30.04,ESE,112,0.0,0.0,73,0.00,,CLR,0.00,VWS V12.08,2013-06-02 03:19:00,
2013-06-01 23:24:00,70.2,61.1,30.05,ESE,112,0.0,0.0,73,0.00,,CLR,0.00,VWS V12.08,2013-06-02 03:24:00,
2013-06-01 23:29:00,70.2,61.1,30.05,ESE,112,0.0,0.0,73,0.00,,CLR,0.00,VWS V12.08,2013-06-02 03:29:00,
2013-06-01 23:34:00,70.2,61.1,30.05,ESE,112,0.0,0.0,73,0.00,,CLR,0.00,VWS V12.08,2013-06-02 03:34:00,
2013-06-01 23:39:00,70.2,61.1,30.05,ESE,112,0.0,0.0,73,0.00,,CLR,0.00,VWS V12.08,2013-06-02 03:39:00,
2013-06-01 23:44:00,70.2,61.1,30.05,ESE,112,0.0,0.0,73,0.00,,CLR,0.00,VWS V12.08,2013-06-02 03:44:00,
2013-06-01 23:49:00,70.2,61.1,30.05,ESE,112,0.0,0.0,73,0.00,,CLR,0.00,VWS V12.08,2013-06-02 03:49:00,
2013-06-01 23:54:00,70.3,61.7,30.05,ESE,112,0.0,0.0,74,0.00,,CLR,0.00,VWS V12.08,2013-06-02 03:54:00,
2013-06-01 23:59:00,70.3,61.7,30.05,ESE,112,0.0,0.0,74,0.00,,CLR,0.00,VWS V12.08,2013-06-02 03:59:00,